Showing default

HAIYANG 2B, 43655

Orbit data source: Space-Track

HAIYANG 2B, 43655 is a Chinese payload satellite in SSO that was launched on Wed, 24 Oct 2018 UTC via a CHANG ZHENG 4B launch vehicle from the Taiyaun Space Center, China (TSC). Payload-class satellites include a variety of spacecraft equipped with specific instruments for various scientific and technological missions. These include communications satellites like Starlink; space stations such as the ISS; scientific satellites like the Hubble; Earth observation satellites from companies like Planet Labs, Umbra, and HawkEye 360; GPS; miniature CubeSats for education and research; and military/defense satellites.

Loading next visibility...
Identifier
43655, 2018-081A
Orbit
SSO
Last TLE update
9 hours ago
Origin
Manufacturer
SISE
Mission
Operational Civil Science
Bus & Motor
CAST-968?, Unknown motor
Mass
~1,500 kg wet, ~1,500 kg dry
Launch date (UTC)
2018-10-24 (7 years ago)
Launch vehicle
CHANG ZHENG 4B
Launch site
Taiyaun Space Center, China (TSC)
Object type
Payload
Rocket body
Debris
Shape & HBR
Box + 2 Pan, 4 m
Radar Cross Section
2.315 m², Large (>1 m²)

Expand to show TLE details & history

TLE from 9 hours ago
0 HAIYANG 2B
1 43655U 18081A   25186.57282407  .00000012  00000-0  54810-4 0  9993
2 43655  99.3323 195.4855 0002056 106.5435 253.5942 13.79307502337143
Epoch: 2025-07-05T13:44Z
TLE epoch observation values (Epoch: 2025-07-05T13:44:51.999Z)
Latitude
-0.00012°
Longitude
65.45992°
Altitude
969.609 km
Speed
7.367 km/s
True Right ascension
13h 01m 56s
True Declination
0° 00' 00"
Sunlit
Object was in daylight at epoch
Visualization orbit readout
Latitude
33.68553°
Longitude
59.56797°
Altitude
970.199 km
Speed
7.37 km/s
Apparent Right ascension
16h 09m 25s
Apparent Declination
0° 16' 25"
Sunlit
Object is in daylight
Visualization observer readout
Local Sidereal Time
10:33:14
Azimuth
94.039° ESE
Elevation
4.387°
Doppler factor
1
Orbital elements
Apogee altitude
965.097 km
Perigee altitude
962.078 km
Semi-major axis
7,341.724 km
Eccentricity
0.00021
Inclination
99.3323°
RAAN
195.4855°
Arg. of periapsis
106.5435°
True anomaly
Unknown
Mean anomaly
253.5942°
Eccentric anomaly
Unknown
Mean motion
3.45021 °/min
Orbital period
104.34 mins
BSTAR
0.00005481
Loading maneuver chart data...
Loading SW <> Apogee altitude chart data...
Loading historical data...
Loading historical data...
Loading historical data...
Loading historical data...
Loading historical data...
Loading historical data...
Loading historical data...

HAIYANG 2B Visibility forecast

Observer location: undefined°, undefined°

Span
Click to sort rows by Start time (UTC) header in descending order
Start Az.
Max El. time (UTC)
Max El. Az.
Max El.
End time (UTC)
End Az.
10 mins2025-07-06 00:19:00.953Z154.183° SSE2025-07-06 00:24:00.953Z35.685° NE43.064°2025-07-06 00:29:00.953Z350.272° N
5 mins2025-07-06 02:05:00.953Z246.255° WSW2025-07-06 02:07:00.953Z268.46° W15.345°2025-07-06 02:10:00.953Z300.388° NW
10 mins2025-07-06 12:59:00.953Z30.921° NE2025-07-06 13:04:00.953Z111.237° ESE35.975°2025-07-06 13:09:00.953Z171.684° S
8 mins2025-07-06 14:43:00.953Z339.886° N2025-07-06 14:46:00.953Z301.488° NW24.243°2025-07-06 14:51:00.953Z242.924° WSW
|